Regional Weather Roundup
Issued by NWS Green Bay, WI

Home | Current Version | Previous Version | Text Only | Print | Product List | Glossary On
Versions: 1 2 3 4 5 6 7 8 9 10 11 12 13 14 15 16 17 18 19 20 21 22 23 24 25 26 27 28 29 30 31 32 33 34 35 36 37 38 39 40 41 42 43 44 45 46 47 48 49 50
000
ASUS43 KGRB 262100
RWRGRB

NORTH-CENTRAL AND NORTHEAST WISCONSIN REGIONAL WEATHER ROUNDUP
NATIONAL WEATHER SERVICE GREEN BAY WI
400 PM CDT THU APR 26 2018

WIZ005-009-010>012-018-019-262200-
NORTH CENTRAL WISCONSIN

CITY           SKY/WX    TMP DP  RH WIND       PRES   REMARKS
IRONWOOD       CLOUDY    43  35  73 N9        29.89R
MANITOWISH WTR NOT AVBL
ARBOR VITAE    NOT AVBL
EAGLE RIVER    FAIR      60  26  27 W16G23    29.77F
LAND O LAKES   PTSUNNY   55  31  40 N12G21    29.80R
RHINELANDER    FAIR      62  30  29 W13G21    29.78F
PHILLIPS       CLOUDY    61  32  33 NW9       29.78S
ANTIGO         NOT AVBL
TOMAHAWK       NOT AVBL
MERRILL        NOT AVBL
$$

WIZ013-073-262200-
NORTHEAST WISCONSIN

CITY           SKY/WX    TMP DP  RH WIND       PRES   REMARKS
IRON MOUNTAIN  PTSUNNY   64  29  26 NW14      29.73F
MARINETTE      NOT AVBL
$$

WIZ017-030-035>037-045-262200-
CENTRAL WISCONSIN

CITY           SKY/WX    TMP DP  RH WIND       PRES   REMARKS
MEDFORD        NOT AVBL
WAUSAU         CLOUDY    62  30  29 W14G21    29.77F
MOSINEE        PTSUNNY   63  28  27 W10       29.80F
MARSHFIELD     PTSUNNY   64  30  27 W13       29.78F
WISC RAPIDS    FAIR      69  24  18 W18       29.79F
STEVENS POINT  NOT AVBL
WAUPACA        FAIR      69  23  17 SW17      29.78F
SHAWANO        FAIR      65  30  27 SW9       29.77F
CLINTONVILLE   FAIR      66  25  21 W12       29.78F
WAUTOMA        FAIR      68  27  21 SW14      29.79F
$$

WIZ038-039-048-051-262200-
FOX VALLEY

CITY           SKY/WX    TMP DP  RH WIND       PRES   REMARKS
NWS GREEN BAY  FAIR      64  35  34 SW10G22   29.79F
APPLETON       PTSUNNY   64  19  17 SW12G18   29.79F
OSHKOSH        FAIR      65  28  24 W10       29.80F
FOND DU LAC    FAIR      65  26  23 SW14      29.81F
$$

WIZ022-050-052-262200-
EAST CENTRAL WISCONSIN

CITY           SKY/WX    TMP DP  RH WIND       PRES   REMARKS
EPHRAIM        NOT AVBL
WASHINGTON ISL NOT AVBL
STURGEON BAY   FAIR      61  39  44 VRB6      29.80F
MANITOWOC      FAIR      55  36  48 S12       29.82F HAZE
SHEBOYGAN      FAIR      62  38  40 S9        29.81F
$$

LMZ563-521-522-541>543-262200-
LAKESHORE

STATION/POSITION TIME  TEMP    WIND        PRES    VSBY  WAVE
                       AIR SEA DIR/SP/G                  HT/PER
                 (UTC) (F)     (DEG/KT/KT) (MB)    (MI)  (FT/S)
SHEBOYGAN LKSHOR 2000   42     170/ 20/ 22 1011.1F
KEWAUNEE LKSHORE 2030   43     180/ 16/ 19 1009.0F
NORTHPORT PIER   2040   51                 1009.1F
SISTER BAY LKSHO 2027   58     140/ 10/ 14   N/A
MENOMINEE LKSHOR 2030   55     170/ 11/ 13 1008.2F
$$



USA.gov is the U.S. government's official web portal to all federal, state and local government web resources and services.